Branson, MO

4:30 PM CDT on July 23, 2017 (GMT -0500)
Branson

Weather History for KBBG - January, 2013

Change the Weather History Date:

Monday, January 7, 2013

  Actual Average (KHRO) Record (KHRO)
Temperature  
Mean Temperature 38 °F -  
Max Temperature 50 °F 41 °F 75 °F (1965)
Min Temperature 26 °F 22 °F -12 °F (1912)
Degree Days  
Heating Degree Days 27    
Moisture  
Dew Point 21 °F    
Average Humidity 60    
Maximum Humidity 80    
Minimum Humidity 35    
Precipitation  
Precipitation 0.00 in - - ()
Sea Level Pressure  
Sea Level Pressure 30.26 in    
Wind  
Wind Speed 4 mph (SSE)    
Max Wind Speed 16 mph    
Max Gust Speed 21 mph    
Visibility 10 miles    
Events      
Averages and records for this station are not official NWS values.
T = Trace of Precipitation, MM = Missing Value Source: NWS Daily Summary

Daily Weather History Graph

Daily Weather History Graph

Search for Another Location

Airport or City:

Trip Planner

Search our weather history database for the weather conditions in past years. The results will help you decide how hot, cold, wet, or windy it might be!

Date:

Astronomy

Jan. 07, 2013 Rise Set
Actual Time 7:25 AM CST 5:13 PM CST
Civil Twilight 6:56 AM CST 5:41 PM CST
Nautical Twilight 6:24 AM CST 6:14 PM CST
Astronomical Twilight 5:53 AM CST 6:45 PM CST
Moon 2:51 AM CST (1/7) 1:23 PM CST (1/7)
Length of Visible Light 10h 45m
Length of Day
9h 48m
Waning Crescent, 22% of the Moon is Illuminated
Jan 7
Waning Crescent
Jan 11
New
Jan 18
First Quarter
Jan 26
Full
Feb 3
Last Quarter

Hourly Weather History & Observations

Time (CST) Temp. Windchill Dew Point Humidity Pressure Visibility Wind Dir Wind Speed Gust Speed Precip Events Conditions
12:15 AM 26.6 °F - 19.4 °F 74% 30.35 in 10.0 mi Calm Calm - N/A   Clear
12:35 AM 28.4 °F - 17.6 °F 64% 30.35 in 10.0 mi Calm Calm - N/A   Clear
12:55 AM 28.4 °F - 17.6 °F 64% 30.35 in 10.0 mi Calm Calm - N/A   Clear
1:15 AM 28.4 °F - 17.6 °F 64% 30.36 in 10.0 mi Calm Calm - N/A   Clear
1:35 AM 26.6 °F - 19.4 °F 74% 30.36 in 10.0 mi Calm Calm - N/A   Clear
1:55 AM 28.4 °F - 19.4 °F 69% 30.36 in 10.0 mi Calm Calm - N/A   Clear
2:15 AM 26.6 °F 22.6 °F 19.4 °F 74% 30.35 in 10.0 mi SE 3.5 mph - N/A   Clear
2:35 AM 26.6 °F 21.2 °F 19.4 °F 74% 30.35 in 10.0 mi SSE 4.6 mph - N/A   Clear
2:55 AM 28.4 °F 21.2 °F 19.4 °F 69% 30.35 in 10.0 mi SE 6.9 mph - N/A   Clear
3:15 AM 26.6 °F 21.2 °F 19.4 °F 74% 30.34 in 10.0 mi SE 4.6 mph - N/A   Clear
3:35 AM 28.4 °F 23.3 °F 19.4 °F 69% 30.33 in 10.0 mi SE 4.6 mph - N/A   Clear
3:55 AM 26.6 °F 21.2 °F 19.4 °F 74% 30.32 in 10.0 mi SE 4.6 mph - N/A   Clear
4:15 AM 26.6 °F 17.5 °F 19.4 °F 74% 30.31 in 10.0 mi ESE 9.2 mph - N/A   Clear
4:35 AM 28.4 °F 19.7 °F 19.4 °F 69% 30.31 in 10.0 mi ESE 9.2 mph - N/A   Clear
4:55 AM 26.6 °F 18.2 °F 21.2 °F 80% 30.31 in 10.0 mi ESE 8.1 mph - N/A   Clear
5:35 AM 26.6 °F 22.6 °F 21.2 °F 80% 30.31 in 10.0 mi SSE 3.5 mph - N/A   Clear
6:48 AM 26.6 °F 20.0 °F 19.4 °F 74% 30.33 in 10.0 mi SSE 5.8 mph - N/A   Clear
7:53 AM 26.6 °F 20.0 °F 21.2 °F 80% 30.35 in 10.0 mi SSE 5.8 mph - N/A   Clear
8:46 AM 30.2 °F 20.8 °F 23.0 °F 75% 30.34 in 10.0 mi SE 11.5 mph - N/A   Clear
9:46 AM 35.6 °F 29.2 °F 23.0 °F 60% 30.35 in 10.0 mi SE 8.1 mph - N/A   Clear
10:46 AM 39.2 °F 30.5 °F 23.0 °F 52% 30.32 in 10.0 mi SE 16.1 mph 20.7 mph N/A   Partly Cloudy
11:46 AM 42.8 °F 37.0 °F 23.0 °F 46% 30.28 in 10.0 mi SE 10.4 mph - N/A   Partly Cloudy
12:48 PM 46.4 °F 42.4 °F 23.0 °F 40% 30.25 in 10.0 mi South 8.1 mph - N/A   Scattered Clouds
1:51 PM 50.0 °F - 23.0 °F 35% 30.22 in 10.0 mi South 5.8 mph - N/A   Mostly Cloudy
2:46 PM 50.0 °F - 23.0 °F 35% 30.20 in 10.0 mi SSE 6.9 mph - N/A   Mostly Cloudy
3:45 PM 50.0 °F - 23.0 °F 35% 30.20 in 10.0 mi SE 8.1 mph - N/A   Mostly Cloudy
5:50 PM 41.0 °F 37.1 °F 21.2 °F 45% 30.17 in 10.0 mi SE 5.8 mph - N/A   Mostly Cloudy
6:45 PM 39.2 °F 34.2 °F 21.2 °F 49% 30.17 in 10.0 mi SSE 6.9 mph - N/A   Mostly Cloudy
7:55 PM 39.2 °F 35.9 °F 21.2 °F 49% 30.17 in 10.0 mi SSE 4.6 mph - N/A   Scattered Clouds
8:15 PM 39.2 °F 35.0 °F 21.2 °F 49% 30.17 in 10.0 mi SSE 5.8 mph - N/A   Clear
8:35 PM 37.4 °F 33.8 °F 23.0 °F 56% 30.17 in 10.0 mi SSE 4.6 mph - N/A   Clear
8:45 PM 37.4 °F 33.8 °F 26.6 °F 65% 30.17 in 10.0 mi South 4.6 mph - N/A   Mostly Cloudy
8:55 PM 39.2 °F 37.0 °F 21.2 °F 49% 30.17 in 10.0 mi South 3.5 mph - N/A   Clear
9:15 PM 37.4 °F 32.1 °F 21.2 °F 52% 30.16 in 10.0 mi SSE 6.9 mph - N/A   Clear
9:35 PM 39.2 °F 35.9 °F 19.4 °F 45% 30.16 in 10.0 mi South 4.6 mph - N/A   Clear
9:55 PM 37.4 °F 33.8 °F 19.4 °F 48% 30.16 in 10.0 mi South 4.6 mph - N/A   Clear
10:15 PM 37.4 °F 33.8 °F 19.4 °F 48% 30.15 in 10.0 mi SSE 4.6 mph - N/A   Clear
10:35 PM 37.4 °F 33.8 °F 19.4 °F 48% 30.14 in 10.0 mi SSE 4.6 mph - N/A   Clear
10:55 PM 37.4 °F 32.1 °F 21.2 °F 52% 30.14 in 10.0 mi SSE 6.9 mph - N/A   Clear
11:35 PM 37.4 °F 32.1 °F 23.0 °F 56% 30.14 in 10.0 mi SSE 6.9 mph - N/A   Clear